timestamp,surface_pressure_avg,surface_temp_avg,battery_voltage,lat,long
2020-10-16 00:09:01+00:00,353.0029,12.9,12.65,47.84626,-54.09684
2020-10-16 00:19:01+00:00,344.5347,12.91,12.65,47.84626,-54.09684
2020-10-16 00:29:01+00:00,339.3363,12.98,12.65,47.84626,-54.09684
2020-10-16 00:39:01+00:00,333.4296,13.0,12.65,47.84626,-54.09684
2020-10-16 00:49:01+00:00,326.1896,13.0,12.65,47.84626,-54.09684
2020-10-16 00:59:01+00:00,317.3796,13.0,12.65,47.84626,-54.09684
2020-10-16 01:09:01+00:00,309.2797,13.0,12.65,47.84626,-54.09684
2020-10-16 01:19:01+00:00,297.798,13.0,12.65,47.84626,-54.09684
2020-10-16 01:29:01+00:00,285.7164,13.0,12.65,47.84626,-54.09684
2020-10-16 01:39:01+00:00,274.9414,13.0,12.65,47.84626,-54.09684
2020-10-16 01:49:01+00:00,265.3297,13.0,12.65,47.84626,-54.09684
2020-10-16 01:59:01+00:00,253.0714,13.0,12.65,47.84626,-54.09684
2020-10-16 02:09:01+00:00,240.5281,13.0,12.65,47.84626,-54.09684
2020-10-16 02:19:01+00:00,231.0581,13.0,12.65,47.84626,-54.09684
2020-10-16 02:29:01+00:00,220.8864,13.0,12.65,47.84626,-54.09684
2020-10-16 02:39:01+00:00,209.6631,13.0,12.65,47.84626,-54.09684
2020-10-16 02:49:01+00:00,199.5714,13.0,12.65,47.84626,-54.09684
2020-10-16 02:59:01+00:00,193.2481,13.0,12.65,47.84626,-54.09684
2020-10-16 03:09:01+00:00,187.6964,13.0,12.65,47.84626,-54.09684
2020-10-16 03:19:01+00:00,182.0848,13.0,12.57,47.84626,-54.09684
2020-10-16 03:29:01+00:00,177.4382,13.0,12.57,47.84626,-54.09684
2020-10-16 03:39:01+00:00,171.4465,13.0,12.57,47.84626,-54.09684
2020-10-16 03:49:01+00:00,168.5765,12.99,12.57,47.84626,-54.09684
2020-10-16 03:59:01+00:00,166.6698,12.99,12.57,47.84626,-54.09684
2020-10-16 04:09:01+00:00,164.1682,12.99,12.57,47.84626,-54.09684
2020-10-16 04:19:01+00:00,164.0548,12.99,12.57,47.84626,-54.09684
2020-10-16 04:29:01+00:00,163.7181,13.0,12.57,47.84626,-54.09684
2020-10-16 04:39:01+00:00,163.0448,13.0,12.57,47.84626,-54.09684
2020-10-16 04:49:01+00:00,164.9631,13.0,12.57,47.84626,-54.09684
2020-10-16 04:59:01+00:00,170.1799,13.0,12.57,47.84626,-54.09684
2020-10-16 05:09:01+00:00,172.9665,13.0,12.57,47.84626,-54.09684
2020-10-16 05:19:01+00:00,173.1015,13.0,12.57,47.84626,-54.09684
2020-10-16 05:29:01+00:00,175.5165,13.0,12.57,47.84626,-54.09684
2020-10-16 05:39:01+00:00,177.1331,13.0,12.57,47.84626,-54.09684
2020-10-16 05:49:01+00:00,177.9715,13.0,12.57,47.84626,-54.09684
2020-10-16 05:59:01+00:00,181.5881,13.0,12.57,47.84626,-54.09684
2020-10-16 06:09:01+00:00,184.2781,13.0,12.57,47.84626,-54.09684
2020-10-16 06:19:01+00:00,186.4781,13.0,12.57,47.84626,-54.09684
2020-10-16 06:29:01+00:00,191.5598,13.0,12.57,47.84626,-54.09684
2020-10-16 06:39:01+00:00,197.7698,13.0,12.57,47.84626,-54.09684
2020-10-16 06:49:01+00:00,203.7548,13.0,12.57,47.84626,-54.09684
2020-10-16 06:59:01+00:00,209.9915,13.0,12.57,47.84626,-54.09684
2020-10-16 07:09:01+00:00,218.3948,13.0,12.57,47.84626,-54.09684
2020-10-16 07:19:01+00:00,226.4314,13.0,12.57,47.84626,-54.09684
2020-10-16 07:29:01+00:00,232.9264,13.0,12.57,47.84626,-54.09684
2020-10-16 07:39:01+00:00,238.4865,13.0,12.57,47.84626,-54.09684
2020-10-16 07:49:01+00:00,245.4947,13.0,12.57,47.84626,-54.09684
2020-10-16 07:59:01+00:00,252.8864,12.99,12.57,47.84626,-54.09684
2020-10-16 08:09:01+00:00,262.3264,12.99,12.57,47.84626,-54.09684
2020-10-16 08:19:01+00:00,272.593,12.99,12.57,47.84626,-54.09684
2020-10-16 08:29:01+00:00,282.5814,12.98,12.57,47.84626,-54.09684
2020-10-16 08:39:01+00:00,290.288,12.98,12.57,47.84626,-54.09684
2020-10-16 08:49:01+00:00,300.5013,12.97,12.57,47.84626,-54.09684
2020-10-16 08:59:01+00:00,313.7247,12.98,12.57,47.84626,-54.09684
2020-10-16 09:09:01+00:00,323.14799999999997,12.98,12.57,47.84626,-54.09684
2020-10-16 09:19:01+00:00,329.788,12.97,12.49,47.84626,-54.09684
2020-10-16 09:29:01+00:00,341.1546,12.98,12.49,47.84626,-54.09684
2020-10-16 09:39:01+00:00,352.6813,12.97,12.49,47.84626,-54.09684
2020-10-16 09:49:01+00:00,359.3412,12.97,12.49,47.84626,-54.09684
2020-10-16 09:59:01+00:00,363.258,12.96,12.49,47.84626,-54.09684
2020-10-16 10:09:01+00:00,371.6096,12.96,12.49,47.84626,-54.09684
2020-10-16 10:19:01+00:00,376.3329,12.98,12.57,47.84626,-54.09684
2020-10-16 10:29:01+00:00,376.5679,12.97,12.57,47.84626,-54.09684
2020-10-16 10:39:01+00:00,378.3346,12.96,12.57,47.84626,-54.09684
2020-10-16 10:49:01+00:00,380.3529,12.96,12.57,47.84626,-54.09684
2020-10-16 10:59:01+00:00,381.4078,12.97,12.57,47.84626,-54.09684
2020-10-16 11:09:01+00:00,379.9546,12.98,12.57,47.84626,-54.09684
2020-10-16 11:19:01+00:00,378.1196,12.98,14.24,47.84626,-54.09684
2020-10-16 11:29:01+00:00,377.1013,12.97,14.24,47.84626,-54.09684
2020-10-16 11:39:01+00:00,374.9097,12.99,14.24,47.84626,-54.09684
2020-10-16 11:49:01+00:00,369.7496,12.98,14.24,47.84626,-54.09684
2020-10-16 11:59:01+00:00,364.3063,12.98,14.24,47.84626,-54.09684
2020-10-16 12:09:01+00:00,360.6996,12.98,14.24,47.84626,-54.09684
2020-10-16 12:19:01+00:00,358.3297,12.98,14.48,47.84626,-54.09684
2020-10-16 12:29:01+00:00,353.6196,12.98,14.48,47.84626,-54.09684
2020-10-16 12:39:01+00:00,346.908,12.97,14.48,47.84626,-54.09684
2020-10-16 12:49:01+00:00,339.9797,12.97,14.48,47.84626,-54.09684
2020-10-16 12:59:01+00:00,335.1146,12.99,14.48,47.84626,-54.09684
2020-10-16 13:09:01+00:00,328.0646,12.98,14.48,47.84626,-54.09684
2020-10-16 13:19:01+00:00,318.9713,12.98,14.56,47.84626,-54.09684
2020-10-16 13:29:01+00:00,311.8614,12.99,14.56,47.84626,-54.09684
2020-10-16 13:39:01+00:00,302.7747,12.99,14.56,47.84626,-54.09684
2020-10-16 13:49:01+00:00,292.0297,12.98,14.56,47.84626,-54.09684
2020-10-16 13:59:01+00:00,280.7281,12.8,14.56,47.84626,-54.09684
2020-10-16 14:09:01+00:00,270.3081,12.6,14.56,47.84626,-54.09684
2020-10-16 14:19:01+00:00,259.9081,12.6,14.56,47.84626,-54.09684
2020-10-16 14:29:01+00:00,247.863,12.6,14.56,47.84626,-54.09684
2020-10-16 14:39:01+00:00,236.0948,12.6,14.56,47.84626,-54.09684
2020-10-16 14:49:01+00:00,226.8765,12.67,14.56,47.84626,-54.09684
2020-10-16 14:59:01+00:00,220.8648,12.7,14.56,47.84626,-54.09684
2020-10-16 15:09:01+00:00,212.2997,12.7,14.56,47.84626,-54.09684
2020-10-16 15:19:01+00:00,203.4331,12.7,14.48,47.84626,-54.09684
2020-10-16 15:29:01+00:00,198.3332,12.7,14.48,47.84626,-54.09684
2020-10-16 15:39:01+00:00,194.6115,12.73,14.48,47.84626,-54.09684
2020-10-16 15:49:01+00:00,188.8415,12.78,14.48,47.84626,-54.09684
2020-10-16 15:59:01+00:00,183.1381,12.8,14.48,47.84626,-54.09684
2020-10-16 16:09:01+00:00,179.7148,12.8,14.48,47.84626,-54.09684
2020-10-16 16:19:01+00:00,176.3265,12.8,14.32,47.84626,-54.09684
2020-10-16 16:29:01+00:00,174.1464,12.8,14.32,47.84626,-54.09684
2020-10-16 16:39:01+00:00,173.5048,12.82,14.32,47.84626,-54.09684
2020-10-16 16:49:01+00:00,169.9214,12.86,14.32,47.84626,-54.09684
2020-10-16 16:59:01+00:00,166.2431,12.88,14.32,47.84626,-54.09684
2020-10-16 17:09:01+00:00,166.9149,12.89,14.32,47.84626,-54.09684
2020-10-16 17:19:01+00:00,167.0182,12.89,14.24,47.84626,-54.09684
2020-10-16 17:29:01+00:00,164.6581,12.9,14.24,47.84626,-54.09684
2020-10-16 17:39:01+00:00,164.1731,12.9,14.24,47.84626,-54.09684
2020-10-16 17:49:01+00:00,164.3215,12.9,14.24,47.84626,-54.09684
2020-10-16 17:59:01+00:00,164.3132,12.9,14.24,47.84626,-54.09684
2020-10-16 18:09:01+00:00,168.3865,12.9,14.24,47.84626,-54.09684
2020-10-16 18:19:01+00:00,171.8265,12.93,14.08,47.84626,-54.09684
2020-10-16 18:29:01+00:00,171.8831,13.0,14.08,47.84626,-54.09684
2020-10-16 18:39:01+00:00,177.4748,13.0,14.08,47.84626,-54.09684
2020-10-16 18:49:01+00:00,182.3065,13.0,14.08,47.84626,-54.09684
2020-10-16 18:59:01+00:00,183.3831,13.0,14.08,47.84626,-54.09684
2020-10-16 19:09:01+00:00,192.7031,13.0,14.08,47.84626,-54.09684
2020-10-16 19:19:01+00:00,203.6081,13.0,13.84,47.84626,-54.09684
2020-10-16 19:29:01+00:00,205.0181,13.0,13.84,47.84626,-54.09684
2020-10-16 19:39:01+00:00,208.8297,13.0,13.84,47.84626,-54.09684
2020-10-16 19:49:01+00:00,219.7614,13.0,13.84,47.84626,-54.09684
2020-10-16 19:59:01+00:00,227.7281,13.0,13.84,47.84626,-54.09684
2020-10-16 20:09:01+00:00,232.5314,13.0,13.84,47.84626,-54.09684
2020-10-16 20:19:01+00:00,239.9897,13.01,13.44,47.84626,-54.09684
2020-10-16 20:29:01+00:00,249.3798,13.03,13.44,47.84626,-54.09684
2020-10-16 20:39:01+00:00,255.2781,13.0,13.44,47.84626,-54.09684
2020-10-16 20:49:01+00:00,261.2097,13.0,13.44,47.84626,-54.09684
2020-10-16 20:59:01+00:00,271.0281,13.03,13.44,47.84626,-54.09684
2020-10-16 21:09:01+00:00,283.8831,13.04,13.44,47.84626,-54.09684
2020-10-16 21:19:01+00:00,292.0947,13.03,13.05,47.84626,-54.09684
2020-10-16 21:29:01+00:00,300.3613,13.0,13.05,47.84626,-54.09684
2020-10-16 21:39:01+00:00,313.2263,13.0,13.05,47.84626,-54.09684
2020-10-16 21:49:01+00:00,323.5746,13.0,13.05,47.84626,-54.09684
2020-10-16 21:59:01+00:00,329.908,13.0,13.05,47.84626,-54.09684
2020-10-16 22:09:01+00:00,340.9663,13.0,13.05,47.84626,-54.09684
2020-10-16 22:19:01+00:00,353.1196,13.0,12.81,47.84626,-54.09684
2020-10-16 22:29:01+00:00,358.778,13.0,12.81,47.84626,-54.09684
2020-10-16 22:39:01+00:00,362.033,13.0,12.81,47.84626,-54.09684
2020-10-16 22:49:01+00:00,366.3113,13.0,12.81,47.84626,-54.09684
2020-10-16 22:59:01+00:00,370.2213,13.0,12.81,47.84626,-54.09684
2020-10-16 23:09:01+00:00,372.4413,13.01,12.81,47.84626,-54.09684
2020-10-16 23:19:01+00:00,372.4995,13.0,12.73,47.84626,-54.09684
2020-10-16 23:29:01+00:00,371.603,13.0,12.73,47.84626,-54.09684
2020-10-16 23:39:01+00:00,371.0413,13.02,12.73,47.84626,-54.09684
2020-10-16 23:49:01+00:00,369.7863,13.02,12.73,47.84626,-54.09684
2020-10-16 23:59:01+00:00,365.3163,13.0,12.73,47.84626,-54.09684
